Location: Ellen Observatory
(29.0040°N, 81.3000°W)
Time: 23:34:30
(UTC-04:00)

Tiangong 2 - Visible Passes

Search period start: 22 October 2018 00:00
Search period end: 01 November 2018 00:00
Orbit: 384 x 392 km, 42.8° (Epoch: 22 October)

Date Brightness Start Highest point End Pass type
(mag) Time Alt. Az. Time Alt. Az. Time Alt. Az.
22 Oct 4.1 05:33:11 12° SE 05:33:11 12° SE 05:33:28 10° SE visible
24 Oct 2.5 20:02:23 10° SSW 20:04:31 25° SSE 20:04:31 25° SSE visible
25 Oct 3.3 19:05:23 10° SSE 19:06:53 13° SE 19:08:23 10° ESE visible
25 Oct 3.5 20:40:19 10° WSW 20:41:41 23° WSW 20:41:41 23° WSW visible
26 Oct 1.0 19:41:54 10° SW 19:45:02 67° SE 19:46:26 30° ENE visible
27 Oct 2.9 20:20:48 10° W 20:23:22 26° NNW 20:23:22 26° NNW visible
28 Oct 1.8 19:21:58 10° WSW 19:25:03 49° NNW 19:27:55 11° NE visible
29 Oct 3.4 20:01:39 10° WNW 20:03:42 16° NNW 20:04:40 14° N visible
30 Oct 2.9 19:02:26 10° W 19:05:07 25° NNW 19:07:49 10° NNE visible
31 Oct 3.8 19:43:07 10° NNW 19:43:57 11° NNW 19:44:48 10° N visible
